[[{"header":{"parameterUnit":"m.s-1","parameterCategory":1,"la1":30.2991,"la2":30.254,"lo1":-89.0895,"lo2":-89.0444,"dy":0.0017,"dx":0.0017,"nx":28,"ny":28,"refTime":"2023-08-06T03:00:00:Z","depth":0,"parameterNumber":2,"parameterNumberName":"U-component_of_WINDS"},"data":[0,0,0,0,0,0,0,0,0,0,0,0,0,0,0,0,0,0,0,0,0,0,0,0,0,0,0,0,0,0,0,0,0,0,0,0,0,0,0,0,0,0,0,0,0,0,0,0,0,0,0,0,0,0,0,0,0,0,0.635,0.6352,0,0.6566,0.6568,0.6571,0.6633,0.6632,0.6631,0.663,0.6856,0.6863,0.687,0,0,0,0,0,0,0,0,0,0,0,0,0,0.5999,0.6005,0.635,0.6353,0.6355,0.6565,0.6568,0.6571,0.6634,0.6632,0.6631,0.663,0.6853,0.6862,0.687,0,0,0,0,0,0,0,0,0,0,0,0,0,0.6177,0.6007,0.635,0.6412,0.6419,0.6565,0.6568,0.6572,0.6634,0.6632,0.663,0.6629,0.6851,0.6861,0.6871,0.6972,0,0,0.6904,0.6908,0,0,0,0,0,0,0,0,0.6167,0.619,0.64,0.6408,0.6417,0.6571,0.6527,0.6706,0.6634,0.6553,0.663,0.6628,0.6763,0.678,0.6825,0.6982,0.6992,0.6905,0.6911,0.6916,0.6919,0,0,0,0,0,0,0,0.6154,0.6181,0.6435,0.6403,0.6413,0.6431,0.6454,0.6562,0.6665,0.656,0.6565,0.6589,0.6767,0.6814,0.6831,0.6995,0.6905,0.6914,0.6921,0.6925,0.7251,0.7253,0,0,0,0,0,0,0.6131,0.617,0.6429,0.6442,0.6285,0.6439,0.6465,0.6523,0.6664,0.6684,0.659,0.6591,0.6797,0.6818,0.6839,0.6969,0.6916,0.6926,0.6932,0.7249,0.7252,0.7254,0,0,0,0,0,0,0.6123,0.6153,0.642,0.6308,0.6343,0.6447,0.6512,0.6528,0.6576,0.6687,0.6706,0.6619,0.6797,0.6824,0.6939,0.6978,0.693,0.694,0.7246,0.725,0.7253,0.7228,0,0,0,0,0,0,0.6113,0.615,0.6187,0.6308,0.6349,0.6514,0.6514,0.6534,0.6593,0.6597,0.6719,0.6738,0.6797,0.6923,0.6949,0.6991,0.6948,0.7243,0.7248,0.7252,0.7226,0.723,0.7233,0,0,0,0,0,0.61,0.6172,0.6189,0.622,0.6397,0.6516,0.654,0.6605,0.6596,0.6636,0.6708,0.6734,0.6968,0.6934,0.6965,0.701,0.7241,0.7246,0.7251,0.7224,0.7229,0.7233,0,0,0,0,0,0,0.6053,0.6188,0.6209,0.6321,0.6407,0.6527,0.6579,0.6608,0.6698,0.6698,0.6776,0.6804,0.6914,0.6974,0.6933,0.7117,0.7106,0.7117,0.7074,0.708,0.7084,0.7069,0.6957,0,0,0,0,0,0.6056,0.614,0.6254,0.6342,0.6384,0.6474,0.6528,0.6571,0.6663,0.67,0.678,0.6871,0.6965,0.7026,0.7118,0.7234,0.7264,0.7281,0.7285,0.7287,0.7297,0.7367,0.7377,0.7271,0.7271,0.7271,0,0,0.6063,0.6147,0.6195,0.6335,0.6406,0.6494,0.6504,0.6595,0.6662,0.6715,0.6829,0.6891,0.6997,0.7114,0.7169,0.7167,0.7333,0.7294,0.7295,0.7304,0.7374,0.7384,0.7392,0.7275,0.7274,0.7273,0,0,0.6121,0.6191,0.6274,0.6346,0.6453,0.6513,0.6533,0.6649,0.6693,0.6808,0.6851,0.6932,0.7092,0.7167,0.7226,0.7315,0.7345,0.7343,0.7365,0.7432,0.7441,0.7449,0.7484,0.7496,0.7352,0.7352,0.7352,0,0.6116,0.6248,0.6314,0.6404,0.6466,0.6517,0.6604,0.6671,0.6804,0.6847,0.6841,0.7045,0.712,0.7257,0.7279,0.7324,0.7353,0.7331,0.7434,0.7442,0.7451,0.7486,0.7498,0.7352,0.7352,0.7352,0.7352,0,0.6239,0.633,0.6384,0.6511,0.6579,0.6667,0.6749,0.6811,0.6848,0.691,0.7029,0.7121,0.7235,0.727,0.7307,0.7414,0.741,0.7418,0.7409,0.7459,0.7494,0.7507,0.7351,0.7351,0.7351,0.7352,0,0,0.6273,0.6436,0.6456,0.6516,0.664,0.6713,0.6804,0.6915,0.6968,0.7058,0.714,0.7275,0.7285,0.7352,0.7399,0.7457,0.7527,0.7459,0.7463,0.7472,0.7655,0.765,0.7664,0.7546,0.7549,0.7551,0.7647,0,0.6349,0.6513,0.6577,0.6713,0.68,0.6851,0.6932,0.7018,0.7078,0.7163,0.723,0.7326,0.733,0.7371,0.7431,0.7505,0.7566,0.7499,0.7626,0.763,0.7601,0.7681,0.7676,0.7762,0.7661,0.7663,0.7665,0,0.6459,0.6551,0.6695,0.6811,0.6851,0.6921,0.703,0.7109,0.721,0.725,0.7326,0.7369,0.7471,0.7454,0.7597,0.7551,0.7607,0.7652,0.7657,0.7673,0.7652,0.7703,0.7791,0.7805,0.7686,0.7684,0.7683,0,0.6474,0.6633,0.6741,0.6791,0.6928,0.6978,0.7038,0.7136,0.72,0.7295,0.7338,0.7444,0.7503,0.7585,0.7658,0.7638,0.7796,0.7784,0.7836,0.7834,0.7869,0.7866,0.7969,0.7899,0.7899,0.7899,0.7898,0,0.6553,0.664,0.675,0.6817,0.6918,0.6991,0.7089,0.7153,0.7241,0.7323,0.7373,0.745,0.7539,0.7628,0.7686,0.7798,0.7823,0.7861,0.7876,0.7859,0.7854,0.7898,0.7895,0.7902,0.7901,0.7901,0.79,0,0.6587,0.6664,0.6786,0.6907,0.6939,0.7008,0.7113,0.7182,0.7244,0.7348,0.7377,0.7477,0.7584,0.7664,0.7803,0.7842,0.7964,0.7977,0.793,0.7938,0.7986,0.7982,0.8124,0.8148,0.8058,0.8059,0.8059,0,0.6634,0.6703,0.6832,0.689,0.695,0.7043,0.7108,0.7184,0.7251,0.7372,0.7427,0.7538,0.7631,0.7801,0.7888,0.7996,0.8014,0.8057,0.8031,0.8013,0.802,0.8016,0.8025,0.8061,0.8062,0.8062,0.8063,0,0.6711,0.6747,0.6838,0.6945,0.7022,0.7109,0.7198,0.7243,0.7335,0.7408,0.7519,0.7591,0.7734,0.7845,0.7962,0.8027,0.8062,0.807,0.8088,0.8073,0.8044,0.8064,0.7943,0.8067,0.8066,0.8066,0.8066,0.8066,0.6756,0.6821,0.6923,0.7025,0.7099,0.7181,0.7253,0.7325,0.7418,0.754,0.7579,0.7695,0.7798,0.7958,0.8024,0.8118,0.8117,0.8143,0.815,0.8156,0.8157,0.8026,0.8139,0.8139,0.8139,0.8139,0.8139,0,0.6839,0.6907,0.7,0.7123,0.7204,0.7228,0.7328,0.7395,0.7495,0.7587,0.7678,0.7807,0.7916,0.8011,0.8125,0.8182,0.8201,0.821,0.8208,0.8223,0.8149,0.8123,0.8192,0.8192,0.8192,0.8192,0.8192,0.8192,0.6892,0.7004,0.7052,0.7203,0.7271,0.7384,0.744,0.7517,0.7592,0.7733,0.7824,0.7885,0.798,0.8101,0.8203,0.8229,0.827,0.8275,0.8305,0.8234,0.8228,0.8222,0.8198,0.8282,0.8283,0.8372,0.8373,0.8374]},{"header":{"parameterUnit":"m.s-1","parameterCategory":1,"la1":30.2991,"la2":30.254,"lo1":-89.0895,"lo2":-89.0444,"dy":0.0017,"dx":0.0017,"nx":28,"ny":28,"refTime":"2023-08-06T03:00:00:Z","depth":0,"parameterNumber":3,"parameterNumberName":"V-component_of_WINDS"},"data":[0,0,0,0,0,0,0,0,0,0,0,0,0,0,0,0,0,0,0,0,0,0,0,0,0,0,0,0,0,0,0,0,0,0,0,0,0,0,0,0,0,0,0,0,0,0,0,0,0,0,0,0,0,0,0,0,0,0,5.3292,5.3294,0,5.3454,5.3456,5.3458,5.3456,5.3454,5.3452,5.345,5.3605,5.3611,5.3617,0,0,0,0,0,0,0,0,0,0,0,0,0,5.2971,5.2977,5.3292,5.3294,5.3296,5.3454,5.3456,5.3459,5.3457,5.3454,5.3451,5.3449,5.3603,5.3611,5.3618,0,0,0,0,0,0,0,0,0,0,0,0,0,5.312,5.2979,5.3292,5.3314,5.3318,5.3454,5.3456,5.3459,5.3457,5.3454,5.3451,5.3448,5.3601,5.361,5.3619,5.3739,0,0,5.3647,5.3651,0,0,0,0,0,0,0,0,5.3111,5.3131,5.3309,5.3313,5.3318,5.3432,5.34,5.3553,5.3458,5.3404,5.345,5.3446,5.355,5.3563,5.36,5.3747,5.3753,5.3648,5.3653,5.3657,5.366,0,0,0,0,0,0,0,5.3101,5.3124,5.3356,5.3312,5.3317,5.3314,5.3331,5.3429,5.3492,5.3408,5.3409,5.3429,5.3551,5.3591,5.3603,5.3756,5.3648,5.3656,5.3661,5.3665,5.4011,5.4015,0,0,0,0,0,0,5.3087,5.3116,5.3351,5.3361,5.3205,5.3322,5.3342,5.3398,5.3491,5.3503,5.3431,5.3428,5.3577,5.3593,5.3609,5.3759,5.3657,5.3666,5.3671,5.4008,5.4012,5.4016,0,0,0,0,0,0,5.308,5.3108,5.3344,5.3239,5.3268,5.3331,5.3395,5.3403,5.3443,5.3509,5.3519,5.3461,5.3575,5.3596,5.3708,5.3764,5.367,5.3678,5.4003,5.4009,5.4014,5.4057,0,0,0,0,0,0,5.3071,5.3106,5.3154,5.324,5.3274,5.3444,5.3398,5.3409,5.346,5.3458,5.3539,5.355,5.3574,5.3695,5.3717,5.3775,5.3685,5.3998,5.4006,5.4012,5.4051,5.4063,5.4074,0,0,0,0,0,5.306,5.3157,5.3157,5.3185,5.3337,5.3447,5.3466,5.3496,5.3465,5.3513,5.3555,5.3547,5.3754,5.3706,5.3732,5.3792,5.3995,5.4004,5.4012,5.4046,5.4061,5.4073,0,0,0,0,0,0,5.3072,5.3168,5.3169,5.3298,5.3365,5.3447,5.3508,5.351,5.3584,5.3578,5.3608,5.3626,5.3739,5.3776,5.3722,5.3915,5.387,5.3884,5.3887,5.3902,5.3913,5.3902,5.3693,0,0,0,0,0,5.309,5.3175,5.3253,5.3359,5.3393,5.3445,5.3494,5.3511,5.358,5.3607,5.3658,5.3722,5.3802,5.3853,5.393,5.4055,5.4074,5.411,5.4121,5.413,5.4142,5.4213,5.4231,5.4043,5.4043,5.4043,0,0,5.3127,5.319,5.3241,5.3363,5.3417,5.3502,5.3468,5.3559,5.3622,5.362,5.3731,5.377,5.3844,5.3964,5.4019,5.3998,5.4198,5.4141,5.4148,5.4155,5.4224,5.4242,5.4257,5.4049,5.4048,5.4047,0,0,5.3239,5.3296,5.3392,5.3447,5.3531,5.3566,5.3589,5.3671,5.3699,5.3811,5.3812,5.3885,5.4021,5.4075,5.412,5.4255,5.4251,5.4278,5.4339,5.4408,5.4423,5.4436,5.4486,5.4504,5.429,5.429,5.429,0,5.3274,5.3406,5.3439,5.3533,5.3586,5.3592,5.3688,5.3739,5.3842,5.3878,5.3854,5.4027,5.4077,5.4211,5.4245,5.428,5.4306,5.427,5.4419,5.4432,5.4445,5.4493,5.4512,5.4293,5.4293,5.4292,5.4292,0,5.3446,5.3537,5.3604,5.3709,5.3769,5.3863,5.3908,5.3964,5.3977,5.4013,5.4127,5.4188,5.4278,5.4311,5.4321,5.4447,5.4432,5.4413,5.4369,5.4466,5.4511,5.453,5.4297,5.4296,5.4295,5.4295,0,0,5.357,5.3695,5.3719,5.3768,5.3861,5.3931,5.4024,5.4117,5.4166,5.4236,5.4315,5.4432,5.4416,5.4467,5.4483,5.4544,5.465,5.4517,5.452,5.4542,5.4794,5.4809,5.483,5.4647,5.465,5.4653,5.4788,0,5.3694,5.3866,5.3899,5.4047,5.4132,5.414,5.4221,5.4286,5.4322,5.4397,5.4435,5.4519,5.4491,5.4522,5.4582,5.4624,5.4701,5.4614,5.472,5.4723,5.4704,5.4854,5.487,5.4995,5.4806,5.4809,5.4811,0,5.3862,5.3943,5.4101,5.4186,5.4223,5.4296,5.4385,5.4457,5.453,5.4552,5.4611,5.4622,5.4717,5.4668,5.48,5.4741,5.4785,5.4812,5.4818,5.483,5.4775,5.4872,5.5035,5.5055,5.4839,5.4837,5.4835,0,5.394,5.4087,5.4202,5.4243,5.4344,5.4396,5.444,5.4511,5.4565,5.4641,5.4676,5.476,5.4807,5.4871,5.4903,5.4864,5.5033,5.4986,5.5054,5.5053,5.509,5.5088,5.5265,5.5115,5.5115,5.5115,5.5114,0,5.4077,5.4173,5.4239,5.4309,5.4418,5.4454,5.4559,5.4601,5.4664,5.4742,5.475,5.4822,5.486,5.4936,5.4961,5.5067,5.5087,5.5107,5.5113,5.5108,5.5106,5.5139,5.5132,5.512,5.5119,5.5118,5.5117,0,5.4183,5.423,5.4356,5.4444,5.4468,5.4544,5.4618,5.4685,5.4722,5.482,5.4844,5.4901,5.4991,5.503,5.5139,5.5156,5.5279,5.5277,5.5256,5.5259,5.5326,5.532,5.5532,5.5562,5.539,5.5392,5.5393,0,5.4268,5.4344,5.4441,5.4496,5.4543,5.463,5.4687,5.4724,5.4782,5.4873,5.493,5.5022,5.5098,5.5242,5.5291,5.5375,5.5376,5.5445,5.5389,5.5382,5.538,5.5377,5.5385,5.5455,5.5457,5.5459,5.546,0,5.4415,5.4436,5.452,5.4614,5.4683,5.4756,5.4828,5.4871,5.4919,5.4984,5.508,5.5139,5.5254,5.5345,5.5433,5.5474,5.5476,5.5477,5.5498,5.5494,5.5481,5.5492,5.5287,5.5472,5.5471,5.547,5.5469,5.5469,5.4515,5.4584,5.4665,5.4758,5.4818,5.4885,5.4955,5.5002,5.5084,5.5184,5.5199,5.5301,5.5373,5.5492,5.5537,5.5616,5.5599,5.5627,5.5635,5.5643,5.5649,5.5467,5.5631,5.5631,5.5631,5.563,5.563,0,5.4665,5.4718,5.4804,5.4908,5.4981,5.498,5.5059,5.512,5.5212,5.528,5.5357,5.5467,5.5556,5.5613,5.5702,5.5754,5.5757,5.5776,5.5774,5.5784,5.5658,5.5633,5.5773,5.5773,5.5773,5.5773,5.5773,5.5773,5.4752,5.487,5.49,5.5047,5.5098,5.5202,5.5248,5.531,5.5366,5.5491,5.5566,5.5604,5.5668,5.5763,5.5844,5.5858,5.5891,5.5912,5.5925,5.5807,5.5792,5.5778,5.5755,5.5919,5.5919,5.6045,5.6047,5.6047]}]]